Simultaneous Nadir Overpasses (SNOs) Predictions

Prediction of SNOs between GOES-16 and TERRA Satellite Orbit:

Table of predicted SNOs for the next 14.0 days since TLE Epoch: 9/16/2023
Index Date Time (GOES-16) GOES-16 Lat,Lon TERRA Lat,Lon Distance(km) Time Diff (sec)
1 09/16/2023 14:50:48 -0.06, -75.22 -0.72, -72.06 359.31 80
2 09/17/2023 03:08:27 0.06, -75.21 -0.31, -77.00 203.08 80
3 09/19/2023 02:54:40 0.05, -75.22 0.52, -73.02 249.52 80
4 09/19/2023 15:12:09 -0.06, -75.24 0.51, -77.92 305.31 80
5 09/21/2023 14:58:21 -0.05, -75.25 -0.29, -73.94 147.60 80
6 09/22/2023 03:16:00 0.05, -75.23 -0.73, -78.88 414.68 80
7 09/24/2023 02:59:32 0.05, -75.25 0.10, -74.90 38.53 80
8 09/26/2023 02:43:04 0.04, -75.26 0.95, -70.93 492.29 80
9 09/26/2023 15:03:13 -0.04, -75.28 0.06, -75.83 62.06 80
10 09/28/2023 14:46:44 -0.04, -75.31 -0.76, -71.85 393.04 80
11 09/29/2023 03:09:43 0.04, -75.30 -0.25, -76.79 168.47 80
